Location: Gammelsbach
(49.5261°N, 8.9630°E)
Time: 20:28:35
(UTC+00:00)

Cosmos 2297 Rocket - Pass Details

Date: 17 June 2025
Orbit: 838 x 842 km, 71.0° (Epoch: 16 July)

Event Time Altitude Azimuth Distance (km) Brightness Sun altitude
Rises 20:21:13 0° 223° (SW) 3,388 5.3 -6.4°
Reaches altitude 10° 20:23:43 10° 228° (SW) 2,457 4.6 -6.7°
Maximum altitude 20:29:13 52° 305° (NW) 1,039 3.2 -7.3°
Drops below altitude 10° 20:34:45 10° 22° (NNE) 2,473 5.1 -7.8°
Sets 20:37:17 0° 27° (NNE) 3,411 5.7 -8.1°
